Weather reports worldwide

Advertisment
Georgetown, de, United States of America (2072186): temperature & dewpoint: 02.07.2020 09:00:00 - 08.07.2020 09:00:00 (EDT)Georgetown, de, United States of America (2072186): wind speed & gusts: 02.07.2020 09:00:00 - 08.07.2020 09:00:00 (EDT)Georgetown, de, United States of America (2072186): wind direction: 02.07.2020 09:00:00 - 08.07.2020 09:00:00 (EDT)Georgetown, de, United States of America (2072186): reduced air pressure: 02.07.2020 09:00:00 - 08.07.2020 09:00:00 (EDT)Georgetown, de, United States of America (2072186): visibility: 02.07.2020 09:00:00 - 08.07.2020 09:00:00 (EDT)Georgetown, de, United States of America (2072186): precipitation: 02.07.2020 09:00:00 - 08.07.2020 09:00:00 (EDT)
Date & Time tt [°C] td [°C] ff [km/h] ff [kn] fx [km/h] fx [kn] dd ppp [hPa] vv [km] rr [mm]
08.07.2020 09:00:00 26,7 23,9 8 4 - - S 1017,0 16 -
08.07.2020 08:00:00 24,4 24,4 8 4 - - S 1016,9 15 -
08.07.2020 07:00:00 23,9 23,9 5 3 - - S 1016,9 0,4 -
08.07.2020 06:00:00 23,9 23,9 8 4 - - S 1016,4 0,8 -
08.07.2020 05:00:00 23,9 23,9 11 6 - - SSE 1016,2 3,2 -
08.07.2020 04:00:00 23,9 23,9 11 6 - - S 1016,3 8 -
08.07.2020 03:00:00 23,9 23,3 9 5 - - S 1016,2 10 -
08.07.2020 02:00:00 23,3 23,3 8 4 - - S 1016,8 15 -
08.07.2020 01:00:00 23,3 23,3 8 4 - - S 1017,3 16 -
08.07.2020 00:00:00 23,9 23,3 8 4 - - SSE 1017,5 15 -
07.07.2020 23:00:00 24,4 23,9 9 5 - - S 1017,7 16 -
07.07.2020 22:00:00 25,0 23,9 9 5 - - S 1017,3 16 -
07.07.2020 21:00:00 25,6 23,9 9 5 - - S 1017,0 16 -
07.07.2020 20:00:00 27,2 23,9 13 7 - - S 1016,7 16 -
07.07.2020 19:00:00 27,8 23,9 13 7 - - SSE 1016,7 16 -
07.07.2020 18:00:00 28,9 22,8 21 11 - - SSE 1016,8 16 -
07.07.2020 17:00:00 28,3 21,7 18 10 - - S 1017,1 16 -
07.07.2020 16:00:00 27,2 21,7 18 10 - - SSE 1018,1 16 -
07.07.2020 15:00:00 28,9 22,8 24 13 - - S 1018,3 16 -
07.07.2020 14:00:00 - - - - - - - - - -
07.07.2020 13:00:00 27,2 24,4 11 6 - - S 1018,6 16 0,5
07.07.2020 12:00:00 26,1 25,0 11 6 - - S 1018,6 15 0,0
07.07.2020 11:00:00 27,2 24,4 8 4 - - ESE 1018,5 16 -
07.07.2020 10:00:00 26,7 23,3 11 6 - - E 1018,7 16 -
07.07.2020 09:00:00 25,6 22,8 5 3 - - E 1018,5 16 -
07.07.2020 08:00:00 23,9 21,7 0 0 - - N 1018,6 16 -
07.07.2020 07:00:00 22,8 21,7 8 4 - - SSE 1018,5 16 -
07.07.2020 06:00:00 21,1 21,1 0 0 - - N 1018,1 15 -
07.07.2020 05:00:00 21,7 20,6 5 3 - - NE 1017,6 16 -
07.07.2020 04:00:00 22,2 21,1 8 4 - - ENE 1017,9 16 -
07.07.2020 03:00:00 22,8 20,6 13 7 - - SSW 1017,8 16 -
07.07.2020 02:00:00 22,8 20,6 15 8 - - SW 1017,4 16 0,0
07.07.2020 01:00:00 21,7 21,7 9 5 - - WSW 1018,1 16 0,8
07.07.2020 00:00:00 22,2 21,7 8 4 - - WSW 1019,1 16 0,3
06.07.2020 23:00:00 21,7 21,7 11 6 54 29 E 1019,7 13 11,2
06.07.2020 22:00:00 21,1 20,6 28 15 - - ENE 1020,7 2,4 5,6
06.07.2020 21:00:00 24,4 18,9 24 13 - - E 1019,0 16 0,0
06.07.2020 20:00:00 25,0 19,4 26 14 50 27 ESE 1016,6 16 0,0
06.07.2020 19:00:00 26,7 20,0 34 18 52 28 ENE 1017,2 16 0,0
06.07.2020 18:00:00 34,4 19,4 16 9 - - SW 1016,2 16 -
06.07.2020 17:00:00 35,6 19,4 21 11 - - SW 1016,3 16 -
06.07.2020 16:00:00 35,0 19,4 22 12 - - WSW 1015,8 16 -
06.07.2020 15:00:00 35,0 21,7 22 12 - - WSW 1015,9 16 -
06.07.2020 14:00:00 35,6 21,7 16 9 - - WSW 1016,7 16 -
06.07.2020 13:00:00 35,0 22,2 22 12 - - SSW 1017,2 16 -
06.07.2020 12:00:00 33,3 23,3 9 5 - - SW 1017,3 16 -
06.07.2020 11:00:00 32,8 23,3 15 8 - - SW 1017,5 16 -
06.07.2020 10:00:00 31,1 22,8 13 7 - - WSW 1017,5 16 -
06.07.2020 09:00:00 29,4 23,3 9 5 - - SW 1017,6 16 -
06.07.2020 08:00:00 26,7 22,8 11 6 - - SW 1017,4 16 -
06.07.2020 07:00:00 23,9 22,2 5 3 - - SSW 1017,1 16 -
06.07.2020 06:00:00 22,8 21,1 8 4 - - SSW 1016,5 16 -
06.07.2020 05:00:00 22,2 20,6 8 4 - - SSW 1015,9 16 -
06.07.2020 04:00:00 22,8 20,6 9 5 - - SSW 1015,7 16 -
06.07.2020 03:00:00 22,2 20,6 8 4 - - SSW 1015,8 16 -
06.07.2020 02:00:00 23,3 20,0 8 4 - - SSW 1016,2 16 -
06.07.2020 01:00:00 23,3 20,0 11 6 - - SSW 1016,2 16 -
06.07.2020 00:00:00 23,9 19,4 11 6 - - SSW 1016,0 16 -
05.07.2020 23:00:00 24,4 19,4 9 5 - - SSW 1015,8 16 -
05.07.2020 22:00:00 26,7 18,9 9 5 - - SW 1015,4 16 -
05.07.2020 21:00:00 27,2 17,8 9 5 - - SW 1014,8 16 -
05.07.2020 20:00:00 29,4 20,0 15 8 - - SW 1014,5 16 -
05.07.2020 19:00:00 30,6 21,1 5 3 - - SW 1014,0 16 -
05.07.2020 18:00:00 31,7 20,6 9 5 - - WSW 1013,8 16 -
05.07.2020 17:00:00 32,8 20,0 13 7 - - WSW 1013,9 16 -
05.07.2020 16:00:00 34,4 20,6 13 7 - - W 1013,8 16 -
05.07.2020 15:00:00 33,9 21,1 16 9 - - WSW 1014,6 16 -
05.07.2020 14:00:00 33,9 21,1 13 7 - - SSW 1015,0 16 -
05.07.2020 13:00:00 32,8 21,7 21 11 - - SW 1015,6 16 -
05.07.2020 12:00:00 31,1 22,2 9 5 - - - 1015,7 16 -
05.07.2020 11:00:00 30,0 21,7 11 6 - - WNW 1016,0 16 -
05.07.2020 10:00:00 28,3 22,2 9 5 - - - 1015,8 16 -
05.07.2020 09:00:00 27,2 22,8 9 5 - - SW 1015,6 16 -
05.07.2020 08:00:00 24,4 22,8 0 0 - - N 1015,4 16 -
05.07.2020 07:00:00 21,7 21,7 0 0 - - N 1015,2 6 -
05.07.2020 06:00:00 20,6 20,0 5 3 - - SSW 1014,8 8 -
05.07.2020 05:00:00 20,6 20,6 0 0 - - N 1014,6 4,8 -
05.07.2020 04:00:00 21,1 21,1 0 0 - - N 1014,3 6 -
05.07.2020 03:00:00 21,7 21,1 0 0 - - N 1014,7 10 -
05.07.2020 02:00:00 21,7 21,1 0 0 - - N 1014,5 11 -
05.07.2020 01:00:00 22,2 21,1 0 0 - - N 1014,6 11 -
05.07.2020 00:00:00 22,2 21,1 5 3 - - S 1014,5 13 -
04.07.2020 23:00:00 22,2 21,1 0 0 - - N 1014,5 16 -
04.07.2020 22:00:00 23,3 21,1 8 4 - - ESE 1014,0 16 -
04.07.2020 21:00:00 24,4 21,1 8 4 - - E 1013,3 16 -
04.07.2020 20:00:00 26,7 21,1 11 6 - - ESE 1012,9 16 -
04.07.2020 19:00:00 27,8 21,7 13 7 - - SE 1012,8 16 -
04.07.2020 18:00:00 29,4 21,7 13 7 - - E 1012,9 16 -
04.07.2020 17:00:00 30,0 21,7 11 6 - - - 1013,1 16 -
04.07.2020 16:00:00 31,1 20,6 11 6 - - - 1013,2 16 -
04.07.2020 15:00:00 28,9 21,1 8 4 - - E 1013,7 16 -
04.07.2020 14:00:00 29,4 21,7 15 8 - - ENE 1013,5 16 -
04.07.2020 13:00:00 29,4 22,2 13 7 - - ESE 1013,8 16 -
04.07.2020 12:00:00 28,9 22,2 13 7 - - ENE 1013,7 16 -
04.07.2020 11:00:00 27,2 21,7 8 4 - - NE 1013,4 16 -
04.07.2020 10:00:00 26,7 21,7 13 7 - - E 1013,1 16 -
04.07.2020 09:00:00 26,1 21,7 16 9 - - ENE 1012,8 16 -
04.07.2020 08:00:00 25,0 22,2 16 9 - - ENE 1012,8 16 -
04.07.2020 07:00:00 24,4 22,8 11 6 - - ENE 1011,9 15 -
04.07.2020 06:00:00 23,3 22,2 5 3 - - N 1011,4 11 -
04.07.2020 05:00:00 23,3 21,7 9 5 - - NNE 1011,0 15 -
04.07.2020 04:00:00 23,9 21,7 11 6 - - NNW 1010,3 16 -
04.07.2020 03:00:00 24,4 22,2 0 0 - - N 1010,1 16 -
04.07.2020 02:00:00 25,0 21,7 11 6 - - E 1010,9 16 -
04.07.2020 01:00:00 26,7 22,8 18 10 - - NNE 1011,3 16 -
04.07.2020 00:00:00 27,2 20,6 0 0 - - N 1010,1 16 -
03.07.2020 23:00:00 29,4 20,0 8 4 - - W 1010,3 16 -
03.07.2020 22:00:00 30,0 20,0 8 4 - - W 1010,0 16 -
03.07.2020 21:00:00 28,9 20,6 0 0 - - N 1009,7 16 -
03.07.2020 20:00:00 32,8 18,9 0 0 - - N 1009,6 16 -
03.07.2020 19:00:00 34,4 18,3 9 5 - - NW 1009,3 16 -
03.07.2020 18:00:00 35,0 17,8 9 5 - - - 1009,4 16 -
03.07.2020 17:00:00 35,6 18,9 9 5 - - - 1009,8 16 -
03.07.2020 16:00:00 36,1 19,4 11 6 - - - 1010,1 16 -
03.07.2020 15:00:00 36,1 19,4 16 9 - - WNW 1010,5 16 -
03.07.2020 14:00:00 35,0 20,0 13 7 - - WNW 1010,6 16 -
03.07.2020 13:00:00 34,4 20,0 11 6 - - WNW 1011,0 16 -
03.07.2020 12:00:00 33,9 20,0 13 7 - - NNW 1011,4 16 -
03.07.2020 11:00:00 33,3 20,6 11 6 - - N 1011,5 16 -
03.07.2020 10:00:00 32,2 21,1 11 6 - - N 1011,6 16 -
03.07.2020 09:00:00 28,9 20,6 13 7 - - N 1011,5 16 -
03.07.2020 08:00:00 27,2 20,0 11 6 - - - 1011,0 16 -
03.07.2020 07:00:00 24,4 20,0 5 3 - - NNW 1010,8 16 -
03.07.2020 06:00:00 23,3 20,6 8 4 - - WNW 1010,6 16 -
03.07.2020 05:00:00 23,9 20,6 5 3 - - WNW 1010,2 16 -
03.07.2020 04:00:00 23,9 20,6 5 3 - - W 1010,2 16 -
03.07.2020 03:00:00 24,4 20,6 0 0 - - N 1010,5 16 -
03.07.2020 02:00:00 25,0 20,0 8 4 - - W 1010,6 16 -
03.07.2020 01:00:00 25,6 20,0 8 4 - - WSW 1010,7 16 -
03.07.2020 00:00:00 26,1 20,0 5 3 - - W 1010,9 16 -
02.07.2020 23:00:00 26,7 20,0 5 3 - - WSW 1010,9 16 -
02.07.2020 22:00:00 26,7 20,6 8 4 - - WSW 1010,8 16 -
02.07.2020 21:00:00 28,9 20,0 5 3 - - - 1010,5 16 -
02.07.2020 20:00:00 30,0 20,0 8 4 - - WSW 1010,3 16 -
02.07.2020 19:00:00 31,7 19,4 8 4 - - NW 1010,0 16 -
02.07.2020 18:00:00 32,2 18,3 9 5 - - NNW 1010,0 16 -
02.07.2020 17:00:00 32,2 18,3 11 6 - - N 1010,5 16 -
02.07.2020 16:00:00 32,2 18,3 15 8 - - N 1010,5 16 -
02.07.2020 15:00:00 32,2 20,0 13 7 - - N 1011,1 16 -
02.07.2020 14:00:00 31,7 19,4 15 8 - - NNE 1011,5 16 -
02.07.2020 13:00:00 31,1 17,8 18 10 - - NNE 1011,6 16 -
02.07.2020 12:00:00 30,0 20,6 15 8 - - N 1011,8 16 -
02.07.2020 11:00:00 28,3 21,1 11 6 - - - 1011,9 16 -
02.07.2020 10:00:00 27,8 21,1 13 7 - - NE 1012,0 16 -
02.07.2020 09:00:00 25,6 21,1 5 3 - - NNE 1011,7 16 -

tt = temperature
td = dewpoint
ff = wind speed
fx = gusts
dd = wind direction
ppp = reduced air pressure
vv = visibility
rr = precipitation

Next stations